Вернуться в каталог

OSCAR 14

UOSAT 3

АктивенЛюбительское радиоSSO
NORAD 20437·PAYLOAD·🇬🇧 United Kingdom

Запущен Jan 22, 1990 с Guiana Space Centre

Loading…

Ближайшие Пролёты (ближайшие 24 часа)

TLE

СвежийSource: Space-Track

Эпоха: Sep 14, 2026, 09:55 UTC

1 20437U 90005B   26257.41321689  .00000056  00000-0  36892-4 0  9999
2 20437  98.7941 308.1257 0010437   8.2986   2.7943 14.33285779914378

Отслеживайте OSCAR 14 в реальном времени с AllMySat

Download on the App Store